Regional Weather Roundup
Issued by NWS Cleveland, OH

Home | Current Version | Previous Version | Graphics & Text | Print | Product List | Glossary On
Versions: 1 2 3 4 5 6 7 8 9 10 11 12 13 14 15 16 17 18 19 20 21 22 23 24 25 26 27 28 29 30 31 32 33 34 35 36 37 38 39 40 41 42 43 44 45 46 47 48 49 50
000
ASUS41 KCLE 220102
RWRCLE
OHIO REGIONAL WEATHER ROUNDUP
NATIONAL WEATHER SERVICE CLEVELAND, OH
900 PM EDT MON JUL 21 2014

NOTE: "FAIR" INDICATES FEW OR NO CLOUDS BELOW 12,000 FEET WITH NO
SIGNIFICANT WEATHER AND/OR OBSTRUCTIONS TO VISIBILITY.

OHZ001>008-015>018-024>027-034-035-043-044-220200-
   NORTHWEST OHIO

CITY           SKY/WX    TMP DP  RH WIND       PRES   REMARKS
DEFIANCE       CLEAR     81  61  50 CALM      30.10S
FINDLAY        CLEAR     82  63  52 NW3       30.10R
TOLEDO EXPRESS CLEAR     77  61  57 E5        30.10S
TOLEDO EXEC    CLEAR     77  59  53 E3        30.11S
LIMA           PTCLDY    78  68  71 CALM      30.11S
$$

OHZ009>014-019>023-028>033-038-089-220200-
   NORTHEAST OHIO

CITY           SKY/WX    TMP DP  RH WIND       PRES   REMARKS
CLE-HOPKINS    PTCLDY    74  57  55 N7        30.14S
CLE-LAKEFRONT  CLEAR     73  66  78 NE7       30.11S
CUY CO. ARPT   PTCLDY    72  63  73 E6        30.14S
LORAIN-ELYRIA  CLEAR     76  59  55 E5        30.13S
ASHTABULA      CLEAR     68  62  81 CALM      30.15S
AKRON-CANTON   MOCLDY    76  63  64 N10       30.13R
WOOSTER        CLEAR     74  60  61 NE7       30.14R
MANSFIELD      PTCLDY    75  63  66 N6        30.14R
YOUNGSTOWN     PTCLDY    75  65  70 N7        30.14S
$$

OHZ042-051>053-060>062-070>072-077>081-220200-
  SOUTHWEST OHIO

CITY           SKY/WX    TMP DP  RH WIND       PRES   REMARKS
CINC-COVINGTON PTCLDY    80  65  59 N5        30.08S
CINC-LUNKEN    CLEAR     77  71  82 CALM      30.07S
HAMILTON       CLEAR     75  69  81 CALM      30.09R
DAYTON         PTCLDY    80  65  59 NE3       30.11S
WRIGHT-PAT AFB CLEAR     78  68  72 E2        30.09S
DAYTON GENERAL CLEAR     76  66  71 CALM      30.09S
WILMINGTON     CLEAR     77  66  68 E3        30.10S
$$

OHZ036-037-039>041-045>050-054>059-063>069-073>076-082>088-220200-
  CENTRAL AND SOUTHEAST OHIO

CITY           SKY/WX    TMP DP  RH WIND       PRES   REMARKS
COLUMBUS       PTCLDY    84  64  50 CALM      30.09R
OSU AIRPORT    CLEAR     78  67  68 N3        30.10R
BOLTON FIELD   CLEAR     78  68  69 W3        30.10S
RICKENBACK AFB CLEAR     83  61  46 W3        30.08S
NEWARK         PTCLDY    77  69  76 CALM      30.10R
MARION         CLEAR     78  67  68 NE6       30.11S
LANCASTER      CLEAR     76  71  85 NE3       30.09F
ZANESVILLE     CLEAR     77  71  82 CALM      30.10S
NEW PHILLY     CLEAR     75  70  84 CALM      30.11S
$$


USA.gov is the U.S. government's official web portal to all federal, state and local government web resources and services.